Home   Weather   Târgu Mureş   Past weeks

Flag for Romania Past Weather in Târgu Mureş, Romania — Yesterday and Last 2 Weeks

Now
23 °F

Clear.


Feels Like: 23 °F
Forecast: 13 / 33 °F
Wind: No wind

Location: Tirgu Mures Airport

Current Time: Jan 22, 2017 at 6:29:01 pm

Latest Report: Jan 22, 2017 at 6:00 pm


Visibility: 5 mi

Pressure: 30.51 "Hg

Humidity: 86%

Dew Point: 19 °F

Location of Târgu MureşLocation

Past Weather in Târgu Mureş — Graph

°F

Târgu Mureş Temperature Yesterday

Maximum temperature yesterday: 27 °F (at 1:00 pm)
Minimum temperature yesterday: 3 °F (at 1:30 am)
Average temperature yesterday: 18 °F

High & Low Weather Summary for the Past Weeks

 TemperatureHumidityPressure
High39 °F (Jan 14, 8:00 am)100% (Jan 15, 10:00 pm)30.63 "Hg (Jan 15, 10:00 pm)
Low-9 °F (Jan 10, 8:00 am)48% (Jan 8, 2:00 pm)29.33 "Hg (Jan 14, 4:00 am)
Average17 °F80%30.17 "Hg
* Reported Jan 7 5:00 pm — Jan 22 5:00 pm, Târgu Mureş, Weather by CustomWeather, © 2017

Note: Actual official high and low records may vary slightly from our data, if they occured in-between our weather recording intervals... More about our weather records

Advertising

Târgu Mureş Weather History for the Previous 24 Hours

Scroll right to see more
 ConditionsComfort  
Time TempWeatherWind HumidityBarometerVisibility
5:00 pm
Sun, Jan 22
28 °FSunny.No wind74%30.51 "Hg10 mi
4:30 pm32 °FSunny.1 mph64%30.51 "Hg10 mi
4:00 pm32 °FSunny.1 mph64%30.51 "Hg10 mi
3:30 pm34 °FSunny.2 mph60%30.51 "Hg10 mi
3:00 pm36 °FSunny.No wind56%30.51 "Hg10 mi
2:30 pm34 °FSunny.1 mph60%30.51 "Hg10 mi
2:00 pm34 °FClear.1 mph60%30.51 "Hg5 mi
1:30 pm32 °FClear.1 mph64%30.54 "Hg5 mi
1:00 pm30 °FClear.2 mph69%30.54 "Hg5 mi
12:30 pm30 °FClear.1 mph69%30.54 "Hg4 mi
12:00 pm28 °FClear.2 mph69%30.57 "Hg4 mi
11:30 am30 °FIce fog.No wind69%30.57 "Hg3 mi
11:00 am27 °FIce fog.1 mph74%30.57 "Hg3 mi
10:30 am27 °FIce fog.No wind74%30.57 "Hg3 mi
10:00 am27 °FIce fog.No wind74%30.57 "Hg3 mi
9:30 am21 °FIce fog.No wind80%30.54 "Hg2 mi
9:00 am21 °FIce fog.No wind86%30.54 "Hg2 mi
8:30 am19 °FIce fog.2 mph86%30.54 "Hg2 mi
8:00 am19 °FIce fog.No wind93%30.54 "Hg2 mi
7:30 am21 °FIce fog.No wind86%30.54 "Hg3 mi
7:00 am21 °FIce fog.2 mph86%30.54 "Hg3 mi
6:30 am21 °FIce fog.1 mph86%30.54 "Hg3 mi
6:00 am23 °FIce fog.5 mph86%30.51 "Hg3 mi
5:30 am25 °FIce fog.5 mph80%30.51 "Hg3 mi
5:00 am23 °FIce fog.5 mph86%30.54 "Hg3 mi
4:30 am23 °FIce fog.5 mph86%30.54 "Hg3 mi
4:00 am23 °FIce fog.5 mph86%30.54 "Hg3 mi
3:30 am25 °FIce fog.3 mph80%30.54 "Hg3 mi
3:00 am25 °FIce fog.5 mph80%30.51 "Hg2 mi
2:30 am25 °FIce fog.6 mph80%30.54 "Hg2 mi
2:00 am25 °FIce fog.6 mph80%30.54 "Hg2 mi
1:30 am25 °FIce fog.6 mph80%30.54 "Hg2 mi
1:00 am25 °FIce fog.5 mph80%30.54 "Hg3 mi
12:30 am25 °FIce fog.6 mph80%30.54 "Hg3 mi
12:00 am25 °FIce fog.6 mph74%30.54 "Hg3 mi
11:30 pm
Sat, Jan 21
25 °FIce fog.5 mph80%30.54 "Hg3 mi
11:00 pm25 °FIce fog.6 mph80%30.51 "Hg3 mi
10:30 pm25 °FIce fog.5 mph80%30.51 "Hg3 mi
10:00 pm25 °FIce fog.5 mph80%30.51 "Hg3 mi
9:30 pm27 °FIce fog.6 mph69%30.51 "Hg3 mi
9:00 pm25 °FIce fog.3 mph80%30.51 "Hg3 mi
8:30 pm25 °FIce fog.5 mph80%30.51 "Hg3 mi
8:00 pm25 °FIce fog.5 mph80%30.51 "Hg3 mi
7:30 pm25 °FIce fog.3 mph80%30.51 "Hg3 mi
7:00 pm25 °FOvercast.3 mph80%30.48 "Hg4 mi
6:30 pm27 °FOvercast.2 mph74%30.48 "Hg4 mi
6:00 pm27 °FOvercast.No wind69%30.48 "Hg4 mi
Weather by CustomWeather, © 2017

See weather overviewHow to use our weather pages